Location: Ciserano
(45.5833°N, 9.6000°E)
Time: 08:16:03
(UTC+00:00)

YAOGAN 6 - Pass Details

Date: 29 November 2020
Orbit: 466 x 502 km, 97.0° (Epoch: 25 January)

Event Time Altitude Azimuth Distance (km) Brightness Sun altitude
Rises 05:22:48 0° 12° (NNE) 2,527 6.1 -13.1°
Reaches altitude 10° 05:24:52 10° 12° (NNE) 1,641 5.2 -12.7°
Maximum altitude 05:28:23 88° 99° (E) 475 2.5 -12.1°
Drops below altitude 10° 05:31:52 10° 192° (SSW) 1,618 5.3 -11.6°
Sets 05:33:53 0° 193° (SSW) 2,488 6.3 -11.2°
